STARLINK-2257, 47787

Orbit data source: Space-Track

STARLINK-2257, 47787 is a payload satellite owned by SpaceX/Seattle (US) in LEO that was launched on Thu, 11 Mar 2021 UTC via an FALCON 9 launch vehicle from the Air Force Eastern Test Range (AFETR). Payload-class satellites include a variety of spacecraft equipped with specific instruments for various scientific and technological missions. These include communications satellites like Starlink; space stations such as the ISS; scientific satellites like the Hubble; Earth observation satellites from companies like Planet Labs, Umbra, and HawkEye 360; GPS; miniature CubeSats for education and research; and military/defense satellites.

Loading next visibility...
Identifier
47787, 2021-018A
Orbit
LEO
Country
Flag of USUS
Related business
Manufacturer
SpaceX/Seattle
Mission
Operational Commercial Communications
Bus & Motor
STARLINK, Unknown motor
Mass
260 kg wet, ~248 kg dry
Launch date (UTC)
2021-03-11 (5 years ago)
Launch vehicle
FALCON 9
Launch site
Air Force Eastern Test Range (AFETR)
Object type
Payload
Rocket body
Debris
Shape & HBR
Box + 1 Pan, 10.1 m
Radar Cross Section
13.562 m², Large (>1 m²)

Expand to show TLE details & history
Last TLE update: 20 hours ago

TLE from 20 hours ago
0 STARLINK-2257
1 47787U 21018A   25292.05016873  .00001982  00000-0  15193-3 0  9997
2 47787  53.0528 167.4637 0001580  86.5650 273.5520 15.06404450255247
Epoch: 2025-10-19T01:12Z
TLE epoch observation values (Epoch: 2025-10-19T01:12:14.578Z)
Latitude
0.00002°
Longitude
121.63057°
Altitude
548.009 km
Speed
7.589 km/s
True Right ascension
11h 09m 51s
True Declination
0° 00' 00"
Sunlit
Object was in daylight at epoch
Visualization orbit readout
Latitude
Unknown
Longitude
Unknown
Altitude
Unknown
Speed
Unknown
Apparent Right ascension
Unknown
Apparent Declination
Unknown
Sunlit
N/A
Visualization observer readout
Local Sidereal Time
16:03:43
Azimuth
Unknown
Elevation
Unknown
Doppler factor
Unknown
Orbital elements
Apogee altitude
548.563 km
Perigee altitude
546.375 km
Semi-major axis
6,925.606 km
Eccentricity
0.00016
Inclination
53.0528°
RAAN
167.4637°
Arg. of periapsis
86.565°
True anomaly
273.53393°
Mean anomaly
273.552°
Eccentric anomaly
273.54296°
Mean motion
3.76579 °/min
Orbital period
95.6 mins
BSTAR
0.00015193
Loading maneuver chart data...
Computing Atmospheric mass density...

Documentation

Showing up to 5 results
|